,,Stat5,,Stat1,,Stat2,,Stat3,,Stat4,,Wind1,,Wind1,
time,status,PA1M_AVG,status,PR1M_SUM,status,RH1M_AVG,status,SR1M_AVG,status,TA1M_AVG,status,W1dAve1m,status,W1sAve1m,
2003-09-14, 00:00:01,VALID,918.183,VALID,0,VALID,97.6554,VALID,0.0339617,VALID,20.3158,VALID,34,VALID,0.274671,
2003-09-14, 00:01:01,VALID,918.17,VALID,0,VALID,97.8474,VALID,0.0509425,VALID,20.3163,VALID,34,VALID,0.0078125,
2003-09-14, 00:02:00,VALID,918.164,VALID,0,VALID,97.953,VALID,0.0679233,VALID,20.3228,VALID,34,VALID,0.00875947,
2003-09-14, 00:03:00,VALID,918.146,VALID,0,VALID,97.9873,VALID,0.0849042,VALID,20.3096,VALID,34,VALID,0.142736,
2003-09-14, 00:04:00,VALID,918.139,VALID,0,VALID,97.9886,VALID,0.0849042,VALID,20.3029,VALID,34,VALID,0.111161,
2003-09-14, 00:05:01,VALID,918.135,VALID,0,VALID,97.9784,VALID,0.0679233,VALID,20.2935,VALID,34,VALID,0.100586,
2003-09-14, 00:06:00,VALID,918.134,VALID,0,VALID,97.9377,VALID,0.0509425,VALID,20.2768,VALID,34,VALID,0.384502,
2003-09-14, 00:07:00,VALID,918.115,VALID,0,VALID,97.9377,VALID,0.101885,VALID,20.2582,VALID,34,VALID,0.4375,
2003-09-14, 00:08:01,VALID,918.092,VALID,0,VALID,97.8118,VALID,0.0849042,VALID,20.206,VALID,34,VALID,0.543791,
2003-09-14, 00:09:01,VALID,918.074,VALID,0,VALID,97.7063,VALID,0.0679233,VALID,20.1705,VALID,34,VALID,0.465144,
2003-09-14, 00:10:00,VALID,918.064,VALID,0,VALID,97.6236,VALID,0.101885,VALID,20.1094,VALID,34,VALID,0.657031,
2003-09-14, 00:11:00,VALID,918.045,VALID,0,VALID,97.7343,VALID,0.0849042,VALID,20.0709,VALID,34,VALID,0.627679,
2003-09-14, 00:12:00,VALID,918.023,VALID,0,VALID,97.9898,VALID,0.0509425,VALID,20.0644,VALID,34,VALID,0.663446,
2003-09-14, 00:13:00,VALID,918.002,VALID,0,VALID,98.3167,VALID,0.0849042,VALID,20.0932,VALID,34,VALID,0.625633,
2003-09-14, 00:14:00,VALID,917.994,VALID,0,VALID,98.5354,VALID,0.0849042,VALID,20.1158,VALID,34,VALID,0.548437,
2003-09-14, 00:15:00,VALID,917.976,VALID,0,VALID,98.6167,VALID,0.0849042,VALID,20.1287,VALID,34,VALID,0.350946,
2003-09-14, 00:16:01,VALID,917.964,VALID,0,VALID,98.6282,VALID,0.0509425,VALID,20.1387,VALID,34,VALID,0.375191,
2003-09-14, 00:17:00,VALID,917.951,VALID,0,VALID,98.5583,VALID,0.0679233,VALID,20.132,VALID,34,VALID,0.176282,
2003-09-14, 00:18:00,VALID,917.948,VALID,0,VALID,98.4133,VALID,0.0509425,VALID,20.1161,VALID,34,VALID,0,
2003-09-14, 00:19:01,VALID,917.927,VALID,0,VALID,98.3815,VALID,0.101885,VALID,20.1158,VALID,34,VALID,0,
2003-09-14, 00:20:00,VALID,917.916,VALID,0,VALID,98.4311,VALID,0.101885,VALID,20.1384,VALID,34,VALID,0.0078125,
2003-09-14, 00:21:00,VALID,917.898,VALID,0,VALID,98.4095,VALID,0.0509425,VALID,20.1516,VALID,35,VALID,0.20864,
2003-09-14, 00:22:01,VALID,917.887,VALID,0,VALID,98.3599,VALID,0.0849042,VALID,20.1546,VALID,72,VALID,0.286014,
2003-09-14, 00:23:01,VALID,917.861,VALID,0,VALID,98.3726,VALID,0.0339617,VALID,20.1675,VALID,99,VALID,0.4377,
2003-09-14, 00:24:00,VALID,917.839,VALID,0,VALID,98.4743,VALID,0.0509425,VALID,20.1837,VALID,140,VALID,0.452925,
2003-09-14, 00:25:00,VALID,917.821,VALID,0,VALID,98.351,VALID,0.101885,VALID,20.1939,VALID,144,VALID,0.280222,
2003-09-14, 00:26:01,VALID,917.797,VALID,0,VALID,98.2302,VALID,0.0679233,VALID,20.1871,VALID,142,VALID,0.340303,
2003-09-14, 00:27:00,VALID,917.773,VALID,0,VALID,98.1424,VALID,-0.0169808,VALID,20.172,VALID,139,VALID,0.618056,
2003-09-14, 00:28:00,VALID,917.747,VALID,0,VALID,98.0827,VALID,0,VALID,20.1529,VALID,131,VALID,0.811553,
2003-09-14, 00:29:00,VALID,917.722,VALID,0,VALID,98.1768,VALID,-0.0679233,VALID,20.173,VALID,121,VALID,0.710938,
2003-09-14, 00:30:00,VALID,917.697,VALID,0,VALID,98.2887,VALID,-0.0509425,VALID,20.1631,VALID,121,VALID,0.717601,
2003-09-14, 00:31:00,VALID,917.681,VALID,0,VALID,98.3675,VALID,-0.0679233,VALID,20.1989,VALID,129,VALID,0.639147,
2003-09-14, 00:32:00,VALID,917.664,VALID,0,VALID,98.3256,VALID,-0.0339617,VALID,20.2217,VALID,119,VALID,0.569285,
2003-09-14, 00:33:00,VALID,917.647,VALID,0,VALID,98.2251,VALID,-0.0509425,VALID,20.2279,VALID,115,VALID,0.561472,
2003-09-14, 00:34:00,VALID,917.626,VALID,0,VALID,98.1348,VALID,-0.0509425,VALID,20.2272,VALID,121,VALID,0.576116,
2003-09-14, 00:35:00,VALID,917.619,VALID,0,VALID,98.0738,VALID,-0.0339617,VALID,20.2272,VALID,122,VALID,0.539274,
2003-09-14, 00:36:01,VALID,917.6,VALID,0,VALID,97.9695,VALID,0,VALID,20.2172,VALID,133,VALID,0.408778,
2003-09-14, 00:37:00,VALID,917.599,VALID,0,VALID,97.8627,VALID,-0.0339617,VALID,20.2016,VALID,131,VALID,0.437289,
2003-09-14, 00:38:00,VALID,917.578,VALID,0,VALID,97.8131,VALID,-0.0339617,VALID,20.1919,VALID,117,VALID,0.417725,
2003-09-14, 00:39:00,VALID,917.563,VALID,0,VALID,97.7991,VALID,-0.0169808,VALID,20.179,VALID,112,VALID,0.473558,
2003-09-14, 00:40:00,VALID,917.531,VALID,0,VALID,97.8894,VALID,-0.0169808,VALID,20.1561,VALID,105,VALID,0.454911,
2003-09-14, 00:41:00,VALID,917.503,VALID,0,VALID,98.0356,VALID,-0.0169808,VALID,20.173,VALID,100,VALID,0.491343,
2003-09-14, 00:42:00,VALID,917.487,VALID,0,VALID,98.0674,VALID,-0.0169808,VALID,20.1593,VALID,68,VALID,0.37546,
2003-09-14, 00:43:00,VALID,917.466,VALID,0,VALID,97.6694,VALID,0.0679233,VALID,20.1077,VALID,67,VALID,0.515203,
2003-09-14, 00:44:00,VALID,917.446,VALID,0,VALID,97.8627,VALID,0,VALID,20.0592,VALID,99,VALID,0.720806,
2003-09-14, 00:45:00,VALID,917.424,VALID,0,VALID,98.1691,VALID,0.0509425,VALID,20.0495,VALID,110,VALID,0.650493,
2003-09-14, 00:46:00,VALID,917.419,VALID,0,VALID,98.351,VALID,0,VALID,20.0229,VALID,120,VALID,0.591295,
2003-09-14, 00:47:00,VALID,917.402,VALID,0,VALID,98.5252,VALID,0.0339617,VALID,20.0296,VALID,117,VALID,0.749367,
2003-09-14, 00:48:01,VALID,917.391,VALID,0,VALID,98.6422,VALID,0.0339617,VALID,20.0234,VALID,102,VALID,0.77114,
2003-09-14, 00:49:00,VALID,917.373,VALID,0,VALID,98.7401,VALID,0.0169808,VALID,19.9968,VALID,92,VALID,0.977196,
2003-09-14, 00:50:00,VALID,917.355,VALID,0,VALID,98.7096,VALID,0.0169808,VALID,19.9911,VALID,91,VALID,0.718506,
2003-09-14, 00:51:00,VALID,917.343,VALID,0,VALID,98.7058,VALID,0,VALID,19.9554,VALID,94,VALID,0.600962,
2003-09-14, 00:52:00,VALID,917.321,VALID,0,VALID,98.796,VALID,0.0169808,VALID,19.9422,VALID,97,VALID,0.54375,
2003-09-14, 00:53:00,VALID,917.307,VALID,0,VALID,98.8494,VALID,0.0169808,VALID,19.9298,VALID,120,VALID,0.466005,
2003-09-14, 00:54:00,VALID,917.294,VALID,0,VALID,98.8596,VALID,0,VALID,19.9169,VALID,136,VALID,0.271829,
2003-09-14, 00:55:00,VALID,917.286,VALID,0,VALID,98.9385,VALID,0.0339617,VALID,19.9139,VALID,142,VALID,0.0232264,
2003-09-14, 00:56:00,VALID,917.271,VALID,0,VALID,99.0733,VALID,0.0339617,VALID,19.9139,VALID,182,VALID,0.284951,
2003-09-14, 00:57:01,VALID,917.247,VALID,0,VALID,99.1368,VALID,0.0169808,VALID,19.9169,VALID,195,VALID,0.152549,
2003-09-14, 00:58:00,VALID,917.245,VALID,0,VALID,99.1775,VALID,0,VALID,19.9139,VALID,196,VALID,0,
2003-09-14, 00:59:00,VALID,917.242,VALID,0,VALID,99.2347,VALID,0,VALID,19.9131,VALID,196,VALID,0.0339949,
2003-09-14, 01:00:01,VALID,917.23,VALID,0,VALID,99.1941,VALID,0.0169808,VALID,19.9012,VALID,134,VALID,0.525506,
2003-09-14, 01:01:01,VALID,917.221,VALID,0,VALID,99.2169,VALID,0,VALID,19.8811,VALID,21,VALID,0.542019,
2003-09-14, 01:02:00,VALID,917.216,VALID,0,VALID,99.1737,VALID,0.0169808,VALID,19.8649,VALID,36,VALID,0.640137,
2003-09-14, 01:03:01,VALID,917.204,VALID,0,VALID,99.0427,VALID,0,VALID,19.8103,VALID,36,VALID,0.585537,
2003-09-14, 01:04:01,VALID,917.201,VALID,0,VALID,98.9868,VALID,0,VALID,19.7678,VALID,36,VALID,0.384152,
2003-09-14, 01:05:00,VALID,917.193,VALID,0,VALID,99.002,VALID,0,VALID,19.7653,VALID,36,VALID,0.235642,
2003-09-14, 01:06:01,VALID,917.193,VALID,0,VALID,99.0351,VALID,0.0169808,VALID,19.7586,VALID,36,VALID,0.338925,
2003-09-14, 01:07:01,VALID,917.179,VALID,0,VALID,99.0593,VALID,0,VALID,19.742,VALID,36,VALID,0.38049,
2003-09-14, 01:08:01,VALID,917.172,VALID,0,VALID,99.1089,VALID,0.0169808,VALID,19.7452,VALID,36,VALID,0.393503,
2003-09-14, 01:09:01,VALID,917.163,VALID,0,VALID,99.1801,VALID,0.0169808,VALID,19.7487,VALID,53,VALID,0.511924,
2003-09-14, 01:10:01,VALID,917.159,VALID,0,VALID,99.203,VALID,0.0509425,VALID,19.7452,VALID,63,VALID,0.591741,
2003-09-14, 01:11:01,VALID,917.16,VALID,0,VALID,99.2335,VALID,0.0509425,VALID,19.7492,VALID,66,VALID,0.725718,
2003-09-14, 01:12:01,VALID,917.16,VALID,0,VALID,99.1139,VALID,0.0339617,VALID,19.7231,VALID,67,VALID,0.806756,
2003-09-14, 01:13:01,VALID,917.138,VALID,0,VALID,99.0478,VALID,0.0339617,VALID,19.6876,VALID,74,VALID,0.968539,
2003-09-14, 01:14:01,VALID,917.125,VALID,0,VALID,99.2907,VALID,0.0169808,VALID,19.704,VALID,81,VALID,1.07642,
2003-09-14, 01:15:01,VALID,917.108,VALID,0,VALID,99.2576,VALID,0.0339617,VALID,19.7231,VALID,77,VALID,1.0014,
2003-09-14, 01:16:01,VALID,917.096,VALID,0,VALID,99.3848,VALID,0.0169808,VALID,19.7323,VALID,83,VALID,1.08147,
2003-09-14, 01:17:01,VALID,917.084,VALID,0,VALID,99.5298,VALID,0.0169808,VALID,19.7839,VALID,93,VALID,0.997677,
2003-09-14, 01:18:01,VALID,917.078,VALID,0,VALID,99.3352,VALID,0.0169808,VALID,19.7941,VALID,111,VALID,0.725873,
2003-09-14, 01:19:01,VALID,917.071,VALID,0,VALID,99.4573,VALID,0.0169808,VALID,19.7879,VALID,118,VALID,1.12141,
2003-09-14, 01:20:01,VALID,917.061,VALID,0,VALID,99.4802,VALID,0,VALID,19.8068,VALID,108,VALID,0.846834,
2003-09-14, 01:21:01,VALID,917.04,VALID,0,VALID,99.4738,VALID,0,VALID,19.8135,VALID,117,VALID,0.7169,
2003-09-14, 01:22:01,VALID,917.02,VALID,0,VALID,99.4509,VALID,0,VALID,19.7971,VALID,123,VALID,0.681027,
2003-09-14, 01:23:01,VALID,917.002,VALID,0,VALID,99.4128,VALID,0,VALID,19.7879,VALID,117,VALID,0.638091,
2003-09-14, 01:24:01,VALID,916.973,VALID,0,VALID,99.2691,VALID,0,VALID,19.7688,VALID,108,VALID,0.427619,
2003-09-14, 01:25:01,VALID,916.944,VALID,0,VALID,99.2894,VALID,0,VALID,19.7397,VALID,138,VALID,0.597762,
2003-09-14, 01:26:01,VALID,916.911,VALID,0,VALID,99.292,VALID,0,VALID,19.7271,VALID,90,VALID,0.546387,
2003-09-14, 01:27:01,VALID,916.888,VALID,0,VALID,99.2602,VALID,0.0339617,VALID,19.6873,VALID,116,VALID,0.518429,
2003-09-14, 01:28:01,VALID,916.872,VALID,0,VALID,99.3021,VALID,0.0169808,VALID,19.6816,VALID,122,VALID,0.472545,
2003-09-14, 01:29:00,VALID,916.848,VALID,0,VALID,99.3517,VALID,0,VALID,19.652,VALID,121,VALID,0.331292,
2003-09-14, 01:30:00,VALID,916.835,VALID,0,VALID,99.4547,VALID,0.0169808,VALID,19.6421,VALID,144,VALID,0.485983,
2003-09-14, 01:31:00,VALID,916.842,VALID,0,VALID,99.5336,VALID,0.0169808,VALID,19.6622,VALID,130,VALID,0.461571,
2003-09-14, 01:32:00,VALID,916.828,VALID,0,VALID,99.6239,VALID,0,VALID,19.6687,VALID,134,VALID,0.505345,
2003-09-14, 01:33:00,VALID,916.821,VALID,0,VALID,99.6493,VALID,0.0169808,VALID,19.6784,VALID,142,VALID,0.572163,
2003-09-14, 01:34:00,VALID,916.827,VALID,0,VALID,99.6722,VALID,0.0169808,VALID,19.6746,VALID,147,VALID,0.403125,
2003-09-14, 01:35:00,VALID,916.812,VALID,0,VALID,99.7192,VALID,-0.0169808,VALID,19.6881,VALID,129,VALID,0.495144,
2003-09-14, 01:36:00,VALID,916.802,VALID,0,VALID,99.7472,VALID,0,VALID,19.6878,VALID,140,VALID,0.248162,
2003-09-14, 01:37:00,VALID,916.808,VALID,0,VALID,99.7408,VALID,0,VALID,19.6881,VALID,146,VALID,0.434544,
2003-09-14, 01:38:00,VALID,916.806,VALID,0,VALID,99.7904,VALID,0,VALID,19.691,VALID,165,VALID,0.732178,
2003-09-14, 01:39:00,VALID,916.798,VALID,0,VALID,99.8553,VALID,0.0339617,VALID,19.7427,VALID,171,VALID,0.679487,
2003-09-14, 01:40:00,VALID,916.798,VALID,0,VALID,99.8934,VALID,0.0339617,VALID,19.775,VALID,165,VALID,0.927009,
2003-09-14, 01:41:00,VALID,916.791,VALID,0,VALID,99.9316,VALID,0.0169808,VALID,19.8172,VALID,167,VALID,1.17652,
2003-09-14, 01:42:00,VALID,916.787,VALID,0,VALID,99.957,VALID,0,VALID,19.856,VALID,151,VALID,1.10294,
2003-09-14, 01:43:00,VALID,916.754,VALID,0,VALID,99.9468,VALID,0.0339617,VALID,19.8719,VALID,156,VALID,1.17884,
2003-09-14, 01:44:00,VALID,916.736,VALID,0,VALID,99.9265,VALID,0.0169808,VALID,19.8942,VALID,158,VALID,1.17085,
2003-09-14, 01:45:00,VALID,916.734,VALID,0,VALID,99.91,VALID,0,VALID,19.9039,VALID,143,VALID,1.48335,
2003-09-14, 01:46:00,VALID,916.722,VALID,0,VALID,99.8756,VALID,0.0169808,VALID,19.9365,VALID,145,VALID,0.968304,
2003-09-14, 01:47:00,VALID,916.71,VALID,0,VALID,99.8324,VALID,0.0339617,VALID,19.9526,VALID,155,VALID,1.50739,
2003-09-14, 01:48:00,VALID,916.692,VALID,0,VALID,99.765,VALID,0.0339617,VALID,19.9656,VALID,145,VALID,0.966682,
2003-09-14, 01:49:00,VALID,916.677,VALID,0,VALID,99.6607,VALID,0.0679233,VALID,19.9546,VALID,147,VALID,0.756123,
2003-09-14, 01:50:00,VALID,916.661,VALID,0,VALID,99.5628,VALID,0.0339617,VALID,19.9718,VALID,152,VALID,0.361084,
2003-09-14, 01:51:00,VALID,916.656,VALID,0,VALID,99.4446,VALID,0.0339617,VALID,19.9556,VALID,152,VALID,0.335136,
2003-09-14, 01:52:00,VALID,916.648,VALID,0,VALID,99.3136,VALID,0,VALID,19.9427,VALID,108,VALID,0.455804,
2003-09-14, 01:53:00,VALID,916.638,VALID,0,VALID,99.2131,VALID,0,VALID,19.9236,VALID,140,VALID,0.945313,
2003-09-14, 01:54:00,VALID,916.623,VALID,0,VALID,99.1852,VALID,0,VALID,19.9171,VALID,134,VALID,0.803768,
2003-09-14, 01:55:00,VALID,916.622,VALID,0,VALID,99.1368,VALID,0.0169808,VALID,19.9238,VALID,156,VALID,0.583193,
2003-09-14, 01:56:00,VALID,916.601,VALID,0,VALID,99.0631,VALID,0.0169808,VALID,19.901,VALID,109,VALID,0.743627,
2003-09-14, 01:57:00,VALID,916.596,VALID,0,VALID,99.0109,VALID,0.0339617,VALID,19.8846,VALID,126,VALID,0.990954,
2003-09-14, 01:58:00,VALID,916.588,VALID,0,VALID,98.9893,VALID,0,VALID,19.8851,VALID,128,VALID,1.04263,
2003-09-14, 01:59:00,VALID,916.604,VALID,0,VALID,99.0224,VALID,0.0339617,VALID,19.8816,VALID,120,VALID,0.714105,
2003-09-14, 02:00:00,VALID,916.604,VALID,0,VALID,98.8978,VALID,0,VALID,19.8749,VALID,101,VALID,0.616268,
2003-09-14, 02:01:00,VALID,916.607,VALID,0,VALID,98.8749,VALID,0.0339617,VALID,19.859,VALID,85,VALID,0.366976,
2003-09-14, 02:02:00,VALID,916.609,VALID,0,VALID,98.913,VALID,0.0339617,VALID,19.8689,VALID,108,VALID,0.496338,
2003-09-14, 02:03:00,VALID,916.605,VALID,0,VALID,98.9283,VALID,0.0169808,VALID,19.8587,VALID,103,VALID,0.506811,
2003-09-14, 02:04:00,VALID,916.582,VALID,0,VALID,98.9105,VALID,0.0339617,VALID,19.8483,VALID,112,VALID,0.926562,
2003-09-14, 02:05:00,VALID,916.567,VALID,0,VALID,98.9092,VALID,0.0169808,VALID,19.8523,VALID,108,VALID,0.949535,
2003-09-14, 02:06:00,VALID,916.548,VALID,0,VALID,98.9486,VALID,0.0339617,VALID,19.8622,VALID,112,VALID,1.0409,
2003-09-14, 02:07:00,VALID,916.524,VALID,0,VALID,98.8545,VALID,0.0169808,VALID,19.862,VALID,106,VALID,0.444679,
2003-09-14, 02:08:00,VALID,916.494,VALID,0,VALID,98.7871,VALID,0.0169808,VALID,19.8523,VALID,105,VALID,0.310444,
2003-09-14, 02:09:00,VALID,916.478,VALID,0,VALID,98.7744,VALID,0.0339617,VALID,19.8431,VALID,96,VALID,0.551809,
2003-09-14, 02:10:00,VALID,916.471,VALID,0,VALID,98.8088,VALID,0.0169808,VALID,19.8324,VALID,117,VALID,0.31183,
2003-09-14, 02:11:00,VALID,916.456,VALID,0,VALID,98.8011,VALID,0,VALID,19.8458,VALID,127,VALID,0.59734,
2003-09-14, 02:12:00,VALID,916.449,VALID,0,VALID,98.8177,VALID,0,VALID,19.8364,VALID,113,VALID,0.411765,
2003-09-14, 02:13:00,VALID,916.446,VALID,0,VALID,98.7871,VALID,0.0169808,VALID,19.8431,VALID,129,VALID,0.579814,
2003-09-14, 02:14:00,VALID,916.45,VALID,0,VALID,98.6854,VALID,0.0169808,VALID,19.8267,VALID,109,VALID,0.457031,
2003-09-14, 02:15:00,VALID,916.442,VALID,0,VALID,98.7096,VALID,0,VALID,19.8073,VALID,117,VALID,0.267228,
2003-09-14, 02:16:00,VALID,916.456,VALID,0,VALID,98.7299,VALID,0,VALID,19.811,VALID,110,VALID,0.311607,
2003-09-14, 02:17:00,VALID,916.458,VALID,0,VALID,98.7477,VALID,0,VALID,19.8013,VALID,88,VALID,0.338682,
2003-09-14, 02:18:00,VALID,916.466,VALID,0,VALID,98.8227,VALID,0.0169808,VALID,19.7882,VALID,33,VALID,0.356847,
2003-09-14, 02:19:00,VALID,916.458,VALID,0,VALID,98.8787,VALID,0,VALID,19.7949,VALID,29,VALID,0.223818,
2003-09-14, 02:20:00,VALID,916.46,VALID,0,VALID,98.8952,VALID,0.0169808,VALID,19.808,VALID,53,VALID,0.237253,
2003-09-14, 02:21:00,VALID,916.465,VALID,0,VALID,98.8812,VALID,0,VALID,19.8073,VALID,72,VALID,0.314145,
2003-09-14, 02:22:00,VALID,916.464,VALID,0,VALID,98.7884,VALID,0.0169808,VALID,19.8041,VALID,64,VALID,0.219643,
2003-09-14, 02:23:00,VALID,916.465,VALID,0,VALID,98.7058,VALID,0.0339617,VALID,19.8041,VALID,51,VALID,0.452069,
2003-09-14, 02:24:00,VALID,916.465,VALID,0,VALID,98.6943,VALID,0,VALID,19.8143,VALID,74,VALID,0.713006,
2003-09-14, 02:25:00,VALID,916.458,VALID,0,VALID,98.6435,VALID,0,VALID,19.821,VALID,59,VALID,0.64527,
2003-09-14, 02:26:00,VALID,916.46,VALID,0,VALID,98.6155,VALID,0.0339617,VALID,19.8234,VALID,89,VALID,0.578369,
2003-09-14, 02:27:00,VALID,916.446,VALID,0,VALID,98.6371,VALID,-0.0679233,VALID,19.8346,VALID,136,VALID,0.343349,
2003-09-14, 02:28:00,VALID,916.435,VALID,0,VALID,98.6473,VALID,-0.0849042,VALID,19.864,VALID,126,VALID,0.741295,
2003-09-14, 02:29:00,VALID,916.422,VALID,0,VALID,98.6129,VALID,-0.0679233,VALID,19.8826,VALID,104,VALID,0.354307,
2003-09-14, 02:30:00,VALID,916.416,VALID,0,VALID,98.5163,VALID,-0.0849042,VALID,19.9119,VALID,166,VALID,0.223805,
2003-09-14, 02:31:00,VALID,916.405,VALID,0,VALID,98.4387,VALID,-0.101885,VALID,19.9184,VALID,158,VALID,0.364654,
2003-09-14, 02:32:00,VALID,916.398,VALID,0,VALID,98.3573,VALID,-0.0679233,VALID,19.9251,VALID,155,VALID,0.00863487,
2003-09-14, 02:33:00,VALID,916.392,VALID,0,VALID,98.2721,VALID,-0.0509425,VALID,19.9251,VALID,155,VALID,0,
2003-09-14, 02:34:00,VALID,916.382,VALID,0,VALID,98.1895,VALID,-0.101885,VALID,19.9124,VALID,155,VALID,0.0770089,
2003-09-14, 02:35:00,VALID,916.395,VALID,0,VALID,97.9975,VALID,-0.0849042,VALID,19.8828,VALID,129,VALID,0.0825591,
2003-09-14, 02:36:00,VALID,916.396,VALID,0,VALID,97.8245,VALID,-0.0849042,VALID,19.8379,VALID,124,VALID,0.00183824,
2003-09-14, 02:37:00,VALID,916.389,VALID,0,VALID,98.0051,VALID,-0.101885,VALID,19.8148,VALID,124,VALID,0.234375,
2003-09-14, 02:38:00,VALID,916.384,VALID,0,VALID,98.2315,VALID,-0.101885,VALID,19.812,VALID,123,VALID,0.135742,
2003-09-14, 02:39:00,VALID,916.386,VALID,0,VALID,98.1882,VALID,-0.0509425,VALID,19.7795,VALID,123,VALID,0,
2003-09-14, 02:40:00,VALID,916.39,VALID,0,VALID,98.0407,VALID,-0.0849042,VALID,19.744,VALID,103,VALID,0.111384,
2003-09-14, 02:41:00,VALID,916.389,VALID,0,VALID,97.7355,VALID,-0.0849042,VALID,19.6764,VALID,34,VALID,0.710515,
2003-09-14, 02:42:00,VALID,916.397,VALID,0,VALID,97.8156,VALID,-0.0849042,VALID,19.6217,VALID,27,VALID,0.599265,
2003-09-14, 02:43:00,VALID,916.393,VALID,0,VALID,98.0051,VALID,-0.0509425,VALID,19.5892,VALID,25,VALID,0.375845,
2003-09-14, 02:44:00,VALID,916.407,VALID,0,VALID,98.1742,VALID,-0.101885,VALID,19.5599,VALID,25,VALID,0.42352,
2003-09-14, 02:45:00,VALID,916.406,VALID,0,VALID,98.2632,VALID,-0.0169808,VALID,19.498,VALID,25,VALID,0.307771,
2003-09-14, 02:46:00,VALID,916.414,VALID,0,VALID,98.4069,VALID,-0.0509425,VALID,19.4699,VALID,25,VALID,0.101116,
2003-09-14, 02:47:00,VALID,916.424,VALID,0,VALID,98.5099,VALID,-0.0679233,VALID,19.4371,VALID,25,VALID,0,
2003-09-14, 02:48:00,VALID,916.422,VALID,0,VALID,98.6002,VALID,-0.0679233,VALID,19.4116,VALID,25,VALID,0,
2003-09-14, 02:49:00,VALID,916.436,VALID,0,VALID,98.7363,VALID,-0.0509425,VALID,19.3954,VALID,25,VALID,0.1856,
2003-09-14, 02:50:00,VALID,916.441,VALID,0,VALID,98.8177,VALID,-0.118866,VALID,19.3795,VALID,25,VALID,0.191162,
2003-09-14, 02:51:00,VALID,916.453,VALID,0,VALID,98.9537,VALID,-0.101885,VALID,19.3701,VALID,25,VALID,0.110377,
2003-09-14, 02:52:00,VALID,916.452,VALID,0,VALID,99.1813,VALID,-0.0679233,VALID,19.3795,VALID,25,VALID,0.125446,
2003-09-14, 02:53:00,VALID,916.465,VALID,0,VALID,99.2475,VALID,-0.0849042,VALID,19.3857,VALID,25,VALID,0.22973,
2003-09-14, 02:54:00,VALID,916.469,VALID,0,VALID,99.2653,VALID,-0.0679233,VALID,19.3763,VALID,25,VALID,0.382353,
2003-09-14, 02:55:00,VALID,916.467,VALID,0,VALID,99.1,VALID,-0.101885,VALID,19.3276,VALID,26,VALID,0.428632,
2003-09-14, 02:56:00,VALID,916.466,VALID,0,VALID,99.0694,VALID,-0.0849042,VALID,19.2829,VALID,50,VALID,0.652549,
2003-09-14, 02:57:00,VALID,916.461,VALID,0,VALID,99.4636,VALID,0.0169808,VALID,19.3135,VALID,72,VALID,0.676398,
2003-09-14, 02:58:00,VALID,916.451,VALID,0,VALID,99.6938,VALID,0.0339617,VALID,19.3748,VALID,80,VALID,0.886384,
2003-09-14, 02:59:00,VALID,916.44,VALID,0,VALID,99.737,VALID,0.0169808,VALID,19.4267,VALID,83,VALID,0.839949,
2003-09-14, 03:00:00,VALID,916.427,VALID,0,VALID,99.7536,VALID,0,VALID,19.4364,VALID,91,VALID,0.90648,
2003-09-14, 03:01:00,VALID,916.411,VALID,0,VALID,99.7625,VALID,-0.0169808,VALID,19.4526,VALID,91,VALID,0.895693,
2003-09-14, 03:02:00,VALID,916.409,VALID,0,VALID,99.7777,VALID,0.0169808,VALID,19.4424,VALID,91,VALID,0.835205,
2003-09-14, 03:03:00,VALID,916.398,VALID,0,VALID,99.7688,VALID,0,VALID,19.4491,VALID,89,VALID,0.720954,
2003-09-14, 03:04:00,VALID,916.382,VALID,0,VALID,99.7307,VALID,0.0339617,VALID,19.4526,VALID,87,VALID,0.70067,
2003-09-14, 03:05:00,VALID,916.386,VALID,0,VALID,99.7574,VALID,0,VALID,19.4488,VALID,87,VALID,0.660473,
2003-09-14, 03:06:00,VALID,916.374,VALID,0,VALID,99.7828,VALID,0,VALID,19.4652,VALID,87,VALID,0.599035,
2003-09-14, 03:07:00,VALID,916.366,VALID,0,VALID,99.7993,VALID,0.0169808,VALID,19.4849,VALID,88,VALID,0.581926,
2003-09-14, 03:08:00,VALID,916.36,VALID,0,VALID,99.7866,VALID,0,VALID,19.4973,VALID,90,VALID,0.473479,
2003-09-14, 03:09:00,VALID,916.344,VALID,0,VALID,99.6429,VALID,0,VALID,19.4816,VALID,95,VALID,0.339638,
2003-09-14, 03:10:00,VALID,916.34,VALID,0,VALID,99.5641,VALID,0.0339617,VALID,19.4588,VALID,109,VALID,0.500223,
2003-09-14, 03:11:00,VALID,916.324,VALID,0,VALID,99.5781,VALID,0.0169808,VALID,19.459,VALID,113,VALID,0.589527,
2003-09-14, 03:12:00,VALID,916.307,VALID,0,VALID,99.5781,VALID,0.0169808,VALID,19.4719,VALID,138,VALID,0.64545,
2003-09-14, 03:13:00,VALID,916.291,VALID,0,VALID,99.4776,VALID,0,VALID,19.4555,VALID,136,VALID,0.665752,
2003-09-14, 03:14:00,VALID,916.279,VALID,0,VALID,99.6404,VALID,0,VALID,19.4719,VALID,143,VALID,0.599609,
2003-09-14, 03:15:00,VALID,916.256,VALID,0,VALID,99.6239,VALID,0,VALID,19.4948,VALID,144,VALID,0.544071,
2003-09-14, 03:16:00,VALID,916.267,VALID,0,VALID,99.6086,VALID,0.0509425,VALID,19.4983,VALID,145,VALID,0.817634,
2003-09-14, 03:17:00,VALID,916.257,VALID,0,VALID,99.6811,VALID,0.0169808,VALID,19.5243,VALID,146,VALID,0.565456,
2003-09-14, 03:18:00,VALID,916.25,VALID,0,VALID,99.6811,VALID,0,VALID,19.5271,VALID,146,VALID,0.513787,
2003-09-14, 03:19:00,VALID,916.24,VALID,0,VALID,99.587,VALID,0,VALID,19.5306,VALID,144,VALID,0.538851,
2003-09-14, 03:20:00,VALID,916.224,VALID,0,VALID,99.5666,VALID,0.0169808,VALID,19.5273,VALID,144,VALID,0.596217,
2003-09-14, 03:21:00,VALID,916.209,VALID,0,VALID,99.4369,VALID,0,VALID,19.5042,VALID,134,VALID,0.658717,
2003-09-14, 03:22:00,VALID,916.205,VALID,0,VALID,99.4446,VALID,0.0169808,VALID,19.4881,VALID,126,VALID,0.647991,
2003-09-14, 03:23:00,VALID,916.197,VALID,0,VALID,99.5298,VALID,0.0169808,VALID,19.4911,VALID,147,VALID,0.78315,
2003-09-14, 03:24:00,VALID,916.179,VALID,0,VALID,99.4776,VALID,0.0169808,VALID,19.4943,VALID,131,VALID,0.613971,
2003-09-14, 03:25:00,VALID,916.156,VALID,0,VALID,99.4242,VALID,0.0339617,VALID,19.4983,VALID,137,VALID,0.610008,
2003-09-14, 03:26:00,VALID,916.137,VALID,0,VALID,99.2462,VALID,0,VALID,19.4493,VALID,118,VALID,0.734375,
2003-09-14, 03:27:00,VALID,916.13,VALID,0,VALID,99.2284,VALID,-0.0849042,VALID,19.4245,VALID,137,VALID,0.893229,
2003-09-14, 03:28:00,VALID,916.117,VALID,0,VALID,99.2653,VALID,-0.0849042,VALID,19.4081,VALID,141,VALID,0.977232,
2003-09-14, 03:29:00,VALID,916.109,VALID,0,VALID,99.2805,VALID,-0.0679233,VALID,19.3989,VALID,143,VALID,0.945101,
2003-09-14, 03:30:00,VALID,916.114,VALID,0,VALID,99.3047,VALID,-0.101885,VALID,19.3924,VALID,146,VALID,0.953814,
2003-09-14, 03:31:00,VALID,916.1,VALID,0,VALID,99.3772,VALID,-0.101885,VALID,19.3629,VALID,140,VALID,0.758024,
2003-09-14, 03:32:00,VALID,916.092,VALID,0,VALID,99.3568,VALID,-0.0679233,VALID,19.3405,VALID,136,VALID,0.600123,
2003-09-14, 03:33:00,VALID,916.093,VALID,0,VALID,99.5488,VALID,-0.0509425,VALID,19.3507,VALID,141,VALID,1.00905,
2003-09-14, 03:34:00,VALID,916.086,VALID,0,VALID,99.5768,VALID,-0.0849042,VALID,19.3467,VALID,136,VALID,0.416964,
2003-09-14, 03:35:00,VALID,916.074,VALID,0,VALID,99.5259,VALID,-0.101885,VALID,19.3343,VALID,117,VALID,0.406883,